Powrót do katalogu

KUIPER-00099

AktywnyŁącznośćLEO
NORAD 65138·PAYLOAD·🇺🇸 United States

Wystrzelony Aug 11, 2025 z Cape Canaveral Space Force Station

Loading…

Następne Przeloty (najbliższe 24 godziny)

TLE

ŚwieżeSource: CelesTrak SupGP

Epoka: Sep 14, 2026, 19:10 UTC

1 65138C 25171G   26257.79887732  .00007378  00000+0  96564-3 0  2576
2 65138  51.9028  36.8684 0000540 120.4007 233.0808 14.79930993    17

Śledź KUIPER-00099 w czasie rzeczywistym z AllMySat

Download on the App Store